Location: Treviso
(45.6669°N, 12.2430°E)
Time: 07:39:10
(UTC+02:00)

CUBESAT XI-V - Visible Passes

Search period start: 26 April 2019 00:00
Search period end: 06 May 2019 00:00
Orbit: 669 x 694 km, 98.0° (Epoch: 25 April)

Date Brightness Start Highest point End Pass type
(mag) Time Alt. Az. Time Alt. Az. Time Alt. Az.
26 Apr ? 03:20:49 28° SE 03:23:01 55° ENE 03:27:35 10° N visible
26 Apr ? 04:59:14 16° WSW 05:00:42 18° W 05:03:51 10° NW visible
27 Apr ? 02:19:33 10° E 02:22:24 16° ENE 02:25:14 10° NNE visible
27 Apr ? 03:57:19 35° S 03:59:13 67° WSW 04:03:53 10° NNW visible
28 Apr ? 02:55:25 17° ESE 02:58:17 32° ENE 03:02:26 10° N visible
28 Apr ? 04:33:51 23° SW 04:35:37 30° W 04:39:43 10° NW visible
29 Apr ? 03:31:55 28° SSE 03:34:22 71° ENE 03:39:01 10° N visible
29 Apr ? 05:10:22 11° WSW 05:12:12 14° W 05:14:32 10° WNW visible
30 Apr ? 02:30:15 10° ESE 02:33:38 20° ENE 02:37:00 10° NNE visible
30 Apr ? 04:08:27 28° SSW 04:10:37 51° W 04:15:10 10° NNW visible
01 May ? 03:06:32 18° SE 03:09:34 41° ENE 03:13:56 10° N visible
01 May ? 04:44:58 17° SW 04:47:03 23° W 04:50:47 10° NW visible
02 May ? 02:07:08 10° E 02:09:03 12° ENE 02:10:58 10° NNE visible
02 May ? 03:43:04 26° SSE 03:45:42 89° W 03:50:22 10° NNW visible
02 May ? 05:23:06 10° W 05:23:42 10° W 05:24:18 10° W visible
03 May ? 02:41:09 10° ESE 02:44:52 25° ENE 02:48:38 10° N visible
03 May ? 04:19:36 23° SSW 04:22:00 39° W 04:26:24 10° NNW visible
04 May ? 03:17:41 19° SE 03:20:52 53° ENE 03:25:24 10° N visible
04 May ? 04:56:07 13° SW 04:58:31 18° W 05:01:44 10° NW visible
05 May ? 02:17:32 10° E 02:20:15 16° ENE 02:22:58 10° NNE visible
05 May ? 03:54:13 23° S 03:57:03 70° WSW 04:01:42 10° NNW visible
